Weather History for Lorain / Elyria, OH

Change the Weather History Date:

Friday, January 3, 2014

  Actual Average (KCLE) Record (KCLE)
Temperature  
Mean Temperature 10 °F 28 °F  
Max Temperature 14 °F 35 °F 65 °F (1874)
Min Temperature 5 °F 22 °F -16 °F (1879)
Degree Days  
Heating Degree Days 56 37  
Month to date heating degree days 110  
Since 1 July heating degree days 2217  
Cooling Degree Days 0 0  
Month to date cooling degree days 0  
Year to date cooling degree days 0  
Moisture  
Dew Point 2 °F    
Average Humidity 72    
Maximum Humidity 80    
Minimum Humidity 54    
Precipitation  
Precipitation 0.00 in 0.10 in 0.80 in (1993)
Month to date precipitation 0.30  
Year to date precipitation 0.30  
Snow  
Snow 0.00 in 0.60 in - ()
Month to date snowfall 1.8  
Since 1 July snowfall 20.4  
Snow Depth -    
Sea Level Pressure  
Sea Level Pressure 30.34 in    
Wind  
Wind Speed 13 mph (WNW)    
Max Wind Speed 18 mph    
Max Gust Speed 26 mph    
Visibility 5 miles    
Events Snow    
T = Trace of Precipitation, MM = Missing Value Source: NWS Daily Summary

Daily Weather History Graph

Daily Weather History Graph

Search for Another Location

Airport:

Trip Planner

Search our weather history database for the weather conditions in past years. The results will help you decide how hot, cold, wet, or windy it might be!

Date:

Astronomy

Jan. 03, 2014 Rise Set
Actual Time 7:54 AM EST 5:11 PM EST
Civil Twilight 7:23 AM EST 5:43 PM EST
Nautical Twilight 6:49 AM EST 6:17 PM EST
Astronomical Twilight 6:15 AM EST 6:51 PM EST
Moon 9:18 AM EST (1/3) 8:21 PM EST (1/3)
Length of Visible Light 10h 19m
Length of Day
9h 17m
Waxing Crescent, 8% of the Moon is Illuminated
Jan 3
Waxing Crescent
Jan 7
First Quarter
Jan 15
Full
Jan 24
Last Quarter
Jan 30
New

Hourly Weather History & Observations

Time (EST) Temp. Windchill Dew Point Humidity Pressure Visibility Wind Dir Wind Speed Gust Speed Precip Events Conditions
12:31 AM 14.0 °F -2.0 °F 6.8 °F 73% 30.15 in 3.0 mi North 16.1 mph 26.5 mph 0.00 in Snow Light Snow
12:53 AM 14.0 °F -3.0 °F 6.1 °F 71% 30.20 in 3.0 mi North 18.4 mph 25.3 mph 0.00 in Snow Light Snow
12:57 AM 14.0 °F -2.5 °F 6.8 °F 73% 30.16 in 1.5 mi North 17.3 mph 25.3 mph 0.00 in Snow Light Snow
1:09 AM 12.2 °F -5.3 °F 6.8 °F 79% 30.17 in 1.0 mi North 18.4 mph - 0.00 in Snow Light Snow
1:25 AM 12.2 °F -4.3 °F 6.8 °F 79% 30.18 in 3.0 mi NNW 16.1 mph 25.3 mph 0.00 in Snow Light Snow
1:33 AM 12.2 °F -5.3 °F 6.8 °F 79% 30.18 in 3.0 mi NNW 18.4 mph 25.3 mph 0.00 in Snow Light Snow
1:43 AM 12.2 °F -4.3 °F 6.8 °F 79% 30.19 in 2.5 mi NNW 16.1 mph - 0.00 in Snow Light Snow
1:51 AM 12.2 °F -3.7 °F 6.8 °F 79% 30.20 in 3.0 mi NNW 15.0 mph - 0.00 in Snow Light Snow
1:53 AM 12.0 °F -4.5 °F 6.1 °F 77% 30.24 in 3.0 mi NNW 16.1 mph - 0.00 in Snow Light Snow
2:01 AM 12.2 °F -4.3 °F 6.8 °F 79% 30.21 in 2.0 mi NNW 16.1 mph - 0.00 in Snow Light Snow
2:10 AM 12.2 °F -3.7 °F 6.8 °F 79% 30.21 in 1.8 mi NNW 15.0 mph - 0.00 in Snow Light Snow
2:17 AM 12.2 °F -3.7 °F 5.0 °F 73% 30.22 in 3.0 mi NNW 15.0 mph - 0.00 in Snow Light Snow
2:53 AM 10.9 °F -5.4 °F 3.9 °F 73% 30.29 in 7.0 mi North 15.0 mph - 0.00 in Snow Light Snow
3:53 AM 10.9 °F -3.4 °F 5.0 °F 77% 30.30 in 3.0 mi North 11.5 mph - 0.00 in Snow Light Snow
4:01 AM 10.4 °F -4.1 °F 5.0 °F 79% 30.26 in 2.0 mi North 11.5 mph - 0.00 in Snow Light Snow
4:17 AM 10.4 °F -5.4 °F 5.0 °F 79% 30.27 in 3.0 mi North 13.8 mph 19.6 mph 0.00 in Snow Light Snow
4:53 AM 10.9 °F -4.1 °F 5.0 °F 77% 30.33 in 3.0 mi North 12.7 mph - 0.00 in Snow Light Snow
5:53 AM 10.9 °F -3.4 °F 3.0 °F 70% 30.35 in 6.0 mi North 11.5 mph - 0.00 in Snow Light Snow
6:53 AM 9.0 °F -2.2 °F 3.9 °F 80% 30.38 in 2.5 mi NW 6.9 mph - 0.00 in Snow Light Snow
7:10 AM 8.6 °F -3.7 °F 3.2 °F 79% 30.34 in 3.0 mi NW 8.1 mph - 0.00 in Snow Light Snow
7:38 AM 8.6 °F -4.7 °F 3.2 °F 79% 30.35 in 8.0 mi NW 9.2 mph - 0.00 in Snow Light Snow
7:53 AM 9.0 °F -5.1 °F 3.0 °F 77% 30.42 in 10.0 mi NW 10.4 mph - 0.00 in   Overcast
8:53 AM 8.1 °F -3.2 °F 3.0 °F 80% 30.44 in 2.0 mi WNW 6.9 mph - 0.00 in Snow Light Snow
9:00 AM 8.6 °F -4.7 °F 1.4 °F 73% 30.39 in 1.2 mi WNW 9.2 mph - 0.00 in Snow Light Snow
9:29 AM 8.6 °F -2.6 °F 1.4 °F 73% 30.40 in 1.0 mi NW 6.9 mph - 0.00 in Snow Light Snow
9:53 AM 7.0 °F -6.6 °F 1.9 °F 80% 30.45 in 2.5 mi WSW 9.2 mph - 0.00 in Snow Light Snow
10:13 AM 5.0 °F -8.1 °F -0.4 °F 78% 30.41 in 1.8 mi WSW 8.1 mph - 0.00 in Snow Light Snow
10:25 AM 5.0 °F -9.1 °F -0.4 °F 78% 30.42 in 2.0 mi WSW 9.2 mph - 0.00 in Snow Light Snow
10:37 AM 5.0 °F -9.1 °F -0.4 °F 78% 30.42 in 3.0 mi WSW 9.2 mph - 0.00 in Snow Light Snow
10:53 AM 5.0 °F -10.0 °F -0.9 °F 76% 30.48 in 4.0 mi WSW 10.4 mph - 0.00 in Snow Light Snow
11:01 AM 6.8 °F -7.8 °F -0.4 °F 72% 30.43 in 5.0 mi West 10.4 mph - 0.00 in Snow Light Snow
11:18 AM 6.8 °F -5.9 °F -0.4 °F 72% 30.42 in 4.0 mi WSW 8.1 mph - 0.00 in Snow Light Snow
11:46 AM 6.8 °F -5.9 °F -0.4 °F 72% 30.41 in 10.0 mi WSW 8.1 mph - 0.00 in   Scattered Clouds
11:53 AM 7.0 °F -5.7 °F -0.9 °F 70% 30.46 in 10.0 mi West 8.1 mph - 0.00 in   Partly Cloudy
12:53 PM 9.0 °F -4.2 °F -0.0 °F 67% 30.46 in 10.0 mi WSW 9.2 mph - N/A   Clear
1:53 PM 10.9 °F 2.9 °F 1.9 °F 67% 30.44 in 10.0 mi WSW 4.6 mph - N/A   Clear
2:53 PM 10.9 °F 0.2 °F -0.9 °F 59% 30.43 in 10.0 mi WSW 6.9 mph - N/A   Clear
3:53 PM 10.9 °F -0.8 °F -0.9 °F 59% 30.46 in 10.0 mi WSW 8.1 mph - N/A   Clear
4:53 PM 10.0 °F -2.9 °F -2.9 °F 56% 30.45 in 10.0 mi SW 9.2 mph - N/A   Clear
5:53 PM 8.1 °F -3.2 °F -4.0 °F 58% 30.44 in 10.0 mi SSW 6.9 mph - N/A   Clear
6:53 PM 8.1 °F -2.0 °F -2.9 °F 61% 30.40 in 10.0 mi SSW 5.8 mph - N/A   Partly Cloudy
7:53 PM 9.0 °F -0.9 °F -2.0 °F 61% 30.40 in 10.0 mi South 5.8 mph - N/A   Mostly Cloudy
8:53 PM 10.9 °F -1.8 °F -0.9 °F 59% 30.37 in 10.0 mi South 9.2 mph - N/A   Overcast
9:53 PM 12.0 °F -1.3 °F 1.0 °F 61% 30.35 in 10.0 mi South 10.4 mph - N/A   Overcast
10:53 PM 14.0 °F -0.8 °F -0.0 °F 54% 30.33 in 10.0 mi SSW 13.8 mph - N/A   Overcast
11:53 PM 12.9 °F -0.9 °F -0.0 °F 56% 30.29 in 10.0 mi SSW 11.5 mph - N/A   Clear